Погода в Майске

Погода в Майске : погода сейчас, прогноз погоды и архив. Всё, что Вы хотите узнать о погоде в Майске!

Хотите узнать прогноз погоды в Майске? Тогда Вам сюда: Погода в Майске

Поиск расширенной информации на нашем сайте:

Другие новости

Новости СМИ2

Главная страница сайта

Новости сайта

02.10.2013

Напоминаем, что на нашем новом сайте вы можете получить высокодетализированные прогнозы погоды по пунктам России, СНГ и мира (включающие важные для авиации метеовеличины, такие как направление и скорость ветра, видимость, явления погоды, количество и форма облачности, нижняя и верхняя граница облачности), а также ознакомиться с разнообразными материалами по авиационной метеорологии и подборкой полезных ссылок на эту тему.

Сайт Метеоцентр.Азия посвящён разработке технологий оптимизации авиаметеорологического обслуживания, включая проектирование и перспективное создание нескольких автоматизированных авиаметеорологических систем:
- система выпуска высокодетальных прогностических карт явлений погоды для нижнего воздушного пространства по России и ближнему зарубежью;
- система верификации прогнозов TAF (выпускаемых синоптиками официальных АМСГ РФ и ближнего зарубежья) и AUTOTAF (выпускаемых сайтом Метеоцентр.Азия) - выявление ошибок, онлайн-сопоставление с фактической погодой METAR, автоматическое внесение коррективов в прогнозы при резком отклонении фактической погоды от прогноза, подсчёт оправдываемости прогнозов по элементам и в целом;
- система обработки, анализа и отображения авиаметеорологической информации для применения провайдерами метеорологической информации.

Рекомендуем: подогрев сидений

Погода в Майске - сегодня

Время (UTC), дата Ветер
(°,м/с) 
Видим.   Явления Облачность Т
(°С)
Тd
(°С)
f(%) Тe
(°С)
Pmin
(гПа)
dP
(гПа)
Po
(мм)
O2
(г/м3)
Тmin Tmax R s Состояние
почвы
18 19.06.17 140 (ЮВ) 20000 м    ясно 
+15.8 +12 78 +21  1003.9  0.1  744  281           
21 19.06.17 200 (Ю) 20000 м    ясно 
+13.4 +11.1 86 +18  1004.1  0.1  744  284           
00 20.06.17 180 (Ю) 20000 м    ясно 
+16.4 +11 70 +21  1004.1  0.2  744  281  +11.8        сухая 
03 20.06.17 200 (Ю) 20000 м    ясно 
+23.1 +11.6 48 +27  1003.9  744  274           
06 20.06.17 520 () 3-10{10}  20000 м    8/1 600 м верхняя 
[Cu med, cong|Ci fib]
+27.1 +17 54 +40  1002.7  -1  744  269           
09 20.06.17 180 (Ю) 6-14{14}  20000 м    10/4 600 м верхняя 
[Sc diur, vesp|Cs]
+27.1 +8.1 30 +27  1001.5  -1.2  743  271           
12 20.06.17 250 (З) 6-12{14}  10 км  гроза, ливневой дождь  9/9 600 м кучево-дожд. 
[Cb cap]
+17.1 +12.4 74 +22  1003.1  1.2  744  280    +28.1     
15 20.06.17 160 (Ю) 1{12}  20000 м  {ливн. осадки}  8/3 600 м кучево-дожд., верхняя 
[Cb cap|Ci ing]
+16.1 +13.8 86 +24  1001.5  -89.9  742  279           
18 20.06.17 180 (Ю) 20000 м  {ливн. осадки}  9/0 верхняя 
[Cs]
+13.8 +11.8 88 +19  1001.9  0.2  743  283           
21 20.06.17 тихо ()   20000 м    3/0 средняя 
[Ac As]
+11 +10.6 97 +13  1001.7  -0.3  742  286           
00 21.06.17 140 (ЮВ) 20000 м    10/5 600 м средняя, верхняя 
[Sc|Ac As|Ci]
+11.9 +10.9 94 +16  1001.7  742  285  +9.3      влажная 
03 21.06.17 230 (ЮЗ) 20000 м    8/0 средняя, верхняя 
[Ac As|Ci]
+19.4 +14.6 74 +29  1001.4  0.1  749  279           
06 21.06.17 230 (ЮЗ) 20000 м    8/8 600 м 
[Cu med, cong]
+24.6 +11.8 45 +28  1000.8  -0.5  742  272           
09 21.06.17 200 (Ю) 10 км  гроза, ливневой дождь  10/10 600 м кучево-дожд. 
[Cb cap]
+20.6 +14.5 68 +29  1000.4  -0.5  742  275           
12 21.06.17 270 (З) 1{10}  20000 м  {гроза, ливн. осадки}  10/6 600 м кучево-дожд., средняя 
[Cb cap|As op]
+17.5 +12.3 72 +24  1001.9  1.4  743  279    +26.3  0.4     
15 21.06.17 тихо ()   20000 м  {ливн. осадки}  9/3 600 м верхняя 
[Sc diur, vesp|Ci]
+16.2 +14.8 91 +25  1001.8  -0.1  743  279           
18 21.06.17 тихо ()   20000 м  дымка{ливн. осадки}  3/0 средняя 
[Ac cast]
+14 +13 94 +20  1002.3  0.3  743  282           
21 21.06.17 тихо ()   20000 м  дымка  ясно 
+10.2 +10.2 100 +12  1002.6  0.1  743  287           
00 22.06.17 160 (Ю) 20000 м    10/3 600 м кучево-дожд., средняя, верхняя 
[Cb cap|Ac trans|Ci fib]
+11.6 +11 96 +16  1003  0.5  743  285  +8.6      влажная 
03 22.06.17 050 (СВ) 20000 м  {ливн. осадки}  10/10 600 м 
[Sc]
+15.3 +14.2 93 +25  1002.8  743  281           
06 22.06.17 200 (Ю) 20000 м  {ливн. осадки}  8/3 600 м кучево-дожд., верхняя 
[Cb calv|Ci]
+20.8 +15.2 70 +30  1003.2  0.6  744  275           
09 22.06.17 340 (С) 20000 м    10/3 600 м кучево-дожд., верхняя 
[Cb cap|Ci]
+24.3 +14.8 55 +33  1002.5  -0.6  743  272           
12 22.06.17 200 (Ю) 20000 м    10/4 600 м кучево-дожд., верхняя 
[Cb cap|Ci]
+23 +14.2 58 +31  1002.7  0.2  743  273    +25.2  0.7     
15 22.06.17 270 (З) 20000 м    9/9 300 м кучево-дожд. 
[Cb cap]
+17.8 +13.4 75 +25  1004.3  1.4  745  279           
18 22.06.17 тихо ()   20000 м    9/0 средняя 
[Ac As]
+13.2 +12.5 96 +18  1005.5  745  284           
Время (UTC), дата Ветер
(°,м/с) 
Видим.   Явления Облачность Т
(°С)
Тd
(°С)
f(%) Тe
(°С)
Pmin
(гПа)
dP
(гПа)
Po
(мм)
O2
(г/м3)
Тmin Tmax R s Состояние
почвы

Для получения пояснительной информации подведите курсор к названию столбца.

ПОГОДА в Майске - архив

Всё, что Вы хотите узнать о погоде в Майске - удобно и подробно!

Выберите нужную дату (начиная с 1 января 2015* года) и нажмите кнопку "Найти".
Будут отображены архивные сводки погоды по пункту Майск, начиная с указанной даты.


Отображать данные в формате CSV (для использования в таблицах Excel)


Внимание! Наш архив погоды предназначен исключительно для личного некоммерческого использования в познавательных целях. Если Вам необходимы официальные справки о состоянии погоды (для производственных, юридических, коммерческих и т.п. целей), обращайтесь в органы Росгидромета.

*Примечание: данная дата относится к архиву по метеостанциям СССР (Россия, СНГ, Балтия).
Архив по метеостанциям Зарубежной Европы и Азии (кроме Китая) хранится 10 дней, по другим регионам земного шара (Китай, Африка, Америка, Австралия, Океания) - 1 день.

Майск - район местоположения метеостанции


Название, широта, долгота, высота метеостанции:
Майск 57.8°ш. 77.3°д. 100 м над ур. моря [Российская Федерация]

Дополнительная информация

В oтличие oт бoльшинства пoгoдных сайтoв мы публикуем пoдрoбную метеoинфoрмацию в детальнoм прoфессиoнальнoм фoрмате.

Характеристики температуры и влажнoсти вoздуха измеряются на высoте 2 м в тени вдали oт зданий и деревьев.
Скoрoсть ветра измеряется на высoте 10 м (на урoвне рoста челoвека скoрoсть ветра ниже в 1.5-2 раза). Если метеoстанция нахoдится в гoрoде или в лесу, тo скoрoсть ветра занижена на 2-4 м/с пo сравнению с oткрытым местoм. Скoрoсть ветра над акватoриями крупных рек и oзёр, а также на вершинах хoлмoв на 2-5 м/с выше, чем в oбычных услoвиях.
Атмoсфернoе давление в разных тoчках местнoсти мoжет значительнo oтличаться oт давления на метеoстанции, в зависимoсти oт услoвий рельефа (при пoдъёме на 10 м давление пoнижается примернo на 1 мм рт.ст.).